| time (UTC) | temp C | wind direction | speed KPH | gust KPH | rain 1hr cm | rain 24hr cm | rain mn cm | humidity % | barometer mb |
| 20260903230422 | 20 | 253 | 9.7 | 25.7 | 0.00 | 0.00 | 0.00 | 1 | 1014.0 |
| 20260903225441 | 21 | 244 | 12.9 | 25.7 | 0.00 | 0.00 | 0.00 | 1 | 1014.2 |
| 20260903223242 | 21 | 250 | 11.3 | 25.7 | 0.00 | 0.00 | 0.00 | 1 | 1014.1 |
| 20260903222239 | 21 | 276 | 12.9 | 30.6 | 0.00 | 0.00 | 0.00 | 1 | 1014.2 |
| 20260903221245 | 21 | 266 | 12.9 | 30.6 | 0.00 | 0.00 | 0.00 | 1 | 1014.4 |
| 20260903213930 | 21 | 272 | 11.3 | 27.4 | 0.00 | 0.00 | 0.00 | 1 | 1014.6 |
| 20260903212920 | 21 | 248 | 12.9 | 25.7 | 0.00 | 0.00 | 0.00 | 1 | 1014.8 |
| 20260903211937 | 21 | 277 | 11.3 | 27.4 | 0.00 | 0.00 | 0.00 | 1 | 1014.9 |
| 20260903210911 | 21 | 284 | 12.9 | 27.4 | 0.00 | 0.00 | 0.00 | 1 | 1014.9 |
| 20260903205921 | 21 | 233 | 12.9 | 29.0 | 0.00 | 0.00 | 0.00 | 1 | 1014.9 |
| 20260903204916 | 21 | 190 | 14.5 | 29.0 | 0.00 | 0.00 | 0.00 | 1 | 1014.8 |
| 20260903203912 | 21 | 240 | 12.9 | 29.0 | 0.00 | 0.00 | 0.00 | 1 | 1014.8 |
| 20260903202847 | 21 | 222 | 14.5 | 29.0 | 0.00 | 0.00 | 0.00 | 1 | 1014.6 |
| 20260903200730 | 21 | 253 | 11.3 | 25.7 | 0.00 | 0.00 | 0.00 | 1 | 1015.0 |
| 20260903195713 | 21 | 222 | 11.3 | 24.1 | 0.00 | 0.00 | 0.00 | 1 | 1015.1 |
| 20260903194709 | 21 | 238 | 12.9 | 29.0 | 0.00 | 0.00 | 0.00 | 1 | 1015.1 |
| 20260903193639 | 21 | 209 | 12.9 | 29.0 | 0.00 | 0.00 | 0.00 | 1 | 1015.2 |
| 20260903192657 | 21 | 225 | 11.3 | 25.7 | 0.00 | 0.00 | 0.00 | 1 | 1015.2 |
| 20260903191717 | 21 | 213 | 12.9 | 30.6 | 0.00 | 0.00 | 0.00 | 1 | 1015.1 |
| 20260903190718 | 21 | 229 | 12.9 | 30.6 | 0.00 | 0.00 | 0.00 | 1 | 1015.1 |
| 20260903185701 | 22 | 248 | 12.9 | 24.1 | 0.00 | 0.00 | 0.00 | 1 | 1015.0 |
| 20260903184657 | 22 | 246 | 11.3 | 24.1 | 0.00 | 0.00 | 0.00 | 1 | 1015.0 |
| 20260903183704 | 22 | 236 | 11.3 | 24.1 | 0.00 | 0.00 | 0.00 | 1 | 1015.1 |
| 20260903182723 | 22 | 202 | 11.3 | 24.1 | 0.00 | 0.00 | 0.00 | 1 | 1015.1 |
| 20260903181745 | 23 | 216 | 11.3 | 22.5 | 0.00 | 0.00 | 0.00 | 1 | 1015.0 |
| 20260903180806 | 23 | 259 | 12.9 | 27.4 | 0.00 | 0.00 | 0.00 | 1 | 1015.0 |
| 20260903175752 | 23 | 229 | 12.9 | 29.0 | 0.00 | 0.00 | 0.00 | 1 | 1015.0 |
| 20260903174746 | 23 | 211 | 9.7 | 29.0 | 0.00 | 0.00 | 0.00 | 1 | 1014.8 |
| 20260903173758 | 23 | 236 | 14.5 | 29.0 | 0.00 | 0.00 | 0.00 | 1 | 1014.9 |
| 20260903172810 | 23 | 235 | 12.9 | 38.6 | 0.00 | 0.00 | 0.00 | 1 | 1014.8 |
| 20260903171808 | 24 | 225 | 12.9 | 38.6 | 0.00 | 0.00 | 0.00 | 1 | 1014.8 |
| 20260903165733 | 25 | 201 | 14.5 | 30.6 | 0.00 | 0.00 | 0.00 | 1 | 1015.0 |
| 20260903164709 | 25 | 246 | 16.1 | 30.6 | 0.00 | 0.00 | 0.00 | 1 | 1015.2 |
| 20260903163715 | 25 | 271 | 12.9 | 30.6 | 0.00 | 0.00 | 0.00 | 1 | 1015.3 |
| 20260903162712 | 25 | 267 | 12.9 | 30.6 | 0.00 | 0.00 | 0.00 | 1 | 1015.2 |
| 20260903161657 | 25 | 180 | 12.9 | 25.7 | 0.00 | 0.00 | 0.00 | 1 | 1015.3 |
| 20260903160637 | 26 | 249 | 12.9 | 33.8 | 0.00 | 0.00 | 0.00 | 1 | 1015.5 |
| 20260903155701 | 25 | 241 | 16.1 | 33.8 | 0.00 | 0.00 | 0.00 | 1 | 1015.4 |
| 20260903154652 | 25 | 207 | 14.5 | 33.8 | 0.00 | 0.00 | 0.00 | 1 | 1015.5 |
| 20260903153638 | 25 | 252 | 12.9 | 35.4 | 0.00 | 0.00 | 0.00 | 1 | 1015.5 |
| 20260903152632 | 26 | 252 | 12.9 | 35.4 | 0.00 | 0.00 | 0.00 | 1 | 1015.6 |
| 20260903151637 | 26 | 279 | 12.9 | 33.8 | 0.00 | 0.00 | 0.00 | 1 | 1015.7 |
| 20260903150633 | 25 | 243 | 12.9 | 33.8 | 0.00 | 0.00 | 0.00 | 1 | 1015.5 |
| 20260903145647 | 26 | 254 | 12.9 | 27.4 | 0.00 | 0.00 | 0.00 | 1 | 1015.6 |
| 20260903144622 | 26 | 248 | 9.7 | 25.7 | 0.00 | 0.00 | 0.00 | 1 | 1015.5 |
| 20260903143639 | 26 | 209 | 9.7 | 24.1 | 0.00 | 0.00 | 0.00 | 1 | 1015.6 |
| 20260903142643 | 26 | 262 | 12.9 | 27.4 | 0.00 | 0.00 | 0.00 | 1 | 1015.6 |
| 20260903140524 | 26 | 270 | 12.9 | 29.0 | 0.00 | 0.00 | 0.00 | 1 | 1015.8 |
| 20260903135513 | 26 | 244 | 9.7 | 24.1 | 0.00 | 0.00 | 0.00 | 1 | 1015.7 |
| 20260903134522 | 26 | 223 | 9.7 | 24.1 | 0.00 | 0.00 | 0.00 | 1 | 1015.9 |
| 20260903133507 | 26 | 242 | 11.3 | 24.1 | 0.00 | 0.00 | 0.00 | 1 | 1016.2 |
| 20260903132528 | 26 | 290 | 11.3 | 24.1 | 0.00 | 0.00 | 0.00 | 1 | 1016.3 |
| 20260903131543 | 26 | 246 | 11.3 | 22.5 | 0.00 | 0.00 | 0.00 | 1 | 1016.2 |
| 20260903130543 | 25 | 268 | 8.0 | 25.7 | 0.00 | 0.00 | 0.00 | 1 | 1016.3 |
| 20260903125548 | 25 | 286 | 9.7 | 25.7 | 0.00 | 0.00 | 0.00 | 1 | 1016.5 |
| 20260903124607 | 25 | 291 | 8.0 | 19.3 | 0.00 | 0.00 | 0.00 | 1 | 1016.4 |
| 20260903123626 | 25 | 219 | 9.7 | 24.1 | 0.00 | 0.00 | 0.00 | 1 | 1016.5 |
| 20260903122628 | 25 | 240 | 11.3 | 24.1 | 0.00 | 0.00 | 0.00 | 1 | 1016.5 |
| 20260903121603 | 25 | 252 | 8.0 | 24.1 | 0.00 | 0.00 | 0.00 | 1 | 1016.5 |
| 20260903120547 | 24 | 240 | 9.7 | 24.1 | 0.00 | 0.00 | 0.00 | 1 | 1016.5 |
| 20260903115535 | 24 | 266 | 9.7 | 24.1 | 0.00 | 0.00 | 0.00 | 1 | 1016.4 |
| 20260903114502 | 24 | 247 | 9.7 | 25.7 | 0.00 | 0.00 | 0.00 | 1 | 1016.6 |
| 20260903113510 | 24 | 283 | 11.3 | 25.7 | 0.00 | 0.00 | 0.00 | 1 | 1016.5 |
| 20260903112508 | 24 | 248 | 11.3 | 29.0 | 0.00 | 0.00 | 0.00 | 1 | 1016.5 |
| 20260903111507 | 24 | 252 | 12.9 | 29.0 | 0.00 | 0.00 | 0.00 | 1 | 1016.5 |
| 20260903110507 | 24 | 255 | 8.0 | 25.7 | 0.00 | 0.00 | 0.00 | 1 | 1016.4 |
| 20260903105502 | 24 | 283 | 8.0 | 24.1 | 0.00 | 0.00 | 0.00 | 1 | 1016.5 |
| 20260903104432 | 23 | 244 | 11.3 | 24.1 | 0.00 | 0.00 | 0.00 | 1 | 1016.5 |
| 20260903103455 | 23 | 286 | 9.7 | 24.1 | 0.00 | 0.00 | 0.00 | 1 | 1016.4 |
| 20260903102434 | 23 | 273 | 11.3 | 30.6 | 0.00 | 0.00 | 0.00 | 1 | 1016.6 |
| 20260903101401 | 23 | 273 | 11.3 | 25.7 | 0.00 | 0.00 | 0.00 | 1 | 1016.7 |
| 20260903094122 | 22 | 288 | 12.9 | 27.4 | 0.00 | 0.00 | 0.00 | 1 | 1016.9 |
| 20260903093109 | 22 | 272 | 9.7 | 25.7 | 0.00 | 0.00 | 0.00 | 1 | 1016.9 |
| 20260903092132 | 22 | 274 | 11.3 | 25.7 | 0.00 | 0.00 | 0.00 | 1 | 1016.9 |
| 20260903091147 | 22 | 290 | 11.3 | 25.7 | 0.00 | 0.00 | 0.00 | 1 | 1016.7 |
| 20260903090136 | 22 | 226 | 11.3 | 25.7 | 0.00 | 0.00 | 0.00 | 1 | 1016.6 |
| 20260903085148 | 21 | 248 | 11.3 | 24.1 | 0.00 | 0.00 | 0.00 | 1 | 1016.3 |
| 20260903084153 | 21 | 245 | 11.3 | 24.1 | 0.00 | 0.00 | 0.00 | 1 | 1016.2 |
| 20260903083137 | 21 | 284 | 9.7 | 22.5 | 0.00 | 0.00 | 0.00 | 1 | 1016.3 |
| 20260903082107 | 21 | 259 | 9.7 | 22.5 | 0.00 | 0.00 | 0.00 | 1 | 1016.1 |
| 20260903081114 | 21 | 257 | 9.7 | 24.1 | 0.00 | 0.00 | 0.00 | 1 | 1015.9 |
| 20260903074922 | 20 | 254 | 11.3 | 22.5 | 0.00 | 0.00 | 0.00 | 1 | 1015.8 |
| 20260903073915 | 20 | 244 | 8.0 | 22.5 | 0.00 | 0.00 | 0.00 | 1 | 1015.7 |
| 20260903072841 | 20 | 244 | 9.7 | 19.3 | 0.00 | 0.00 | 0.00 | 1 | 1015.8 |
| 20260903070732 | 20 | 240 | 8.0 | 22.5 | 0.00 | 0.00 | 0.00 | 1 | 1016.0 |
| 20260903065741 | 20 | 267 | 6.4 | 22.5 | 0.00 | 0.00 | 0.00 | 1 | 1016.1 |
| 20260903064804 | 19 | 261 | 6.4 | 19.3 | 0.00 | 0.00 | 0.00 | 1 | 1016.0 |
| 20260903063808 | 19 | 240 | 8.0 | 24.1 | 0.00 | 0.00 | 0.00 | 1 | 1016.0 |
| 20260903061654 | 19 | 254 | 4.8 | 16.1 | 0.00 | 0.00 | 0.00 | 1 | 1015.8 |
| 20260903060711 | 19 | 255 | 6.4 | 14.5 | 0.00 | 0.00 | 0.00 | 1 | 1015.6 |
| 20260903055637 | 18 | 255 | 3.2 | 12.9 | 0.00 | 0.00 | 0.00 | 1 | 1015.6 |
| 20260903054630 | 18 | 262 | 4.8 | 12.9 | 0.00 | 0.00 | 0.00 | 1 | 1015.6 |
| 20260903053641 | 18 | 275 | 6.4 | 14.5 | 0.00 | 0.00 | 0.00 | 1 | 1015.7 |
| 20260903052611 | 18 | 247 | 4.8 | 20.9 | 0.00 | 0.00 | 0.00 | 1 | 1015.6 |
| 20260903051548 | 19 | 244 | 9.7 | 20.9 | 0.00 | 0.00 | 0.00 | 1 | 1015.3 |
| 20260903050532 | 19 | 246 | 8.0 | 20.9 | 0.00 | 0.00 | 0.00 | 1 | 1015.3 |
| 20260903045458 | 19 | 268 | 6.4 | 20.9 | 0.00 | 0.00 | 0.00 | 1 | 1015.2 |
| 20260903044455 | 19 | 266 | 6.4 | 20.9 | 0.00 | 0.00 | 0.00 | 1 | 1015.3 |
| 20260903042331 | 19 | 267 | 6.4 | 25.7 | 0.00 | 0.00 | 0.00 | 1 | 1014.9 |
| 20260903041316 | 19 | 235 | 8.0 | 25.7 | 0.00 | 0.00 | 0.00 | 1 | 1014.7 |
| 20260903040243 | 19 | 250 | 9.7 | 24.1 | 0.00 | 0.00 | 0.00 | 1 | 1014.7 |
| 20260903035243 | 19 | 273 | 8.0 | 22.5 | 0.00 | 0.00 | 0.00 | 1 | 1015.0 |
| 20260903033104 | 19 | 273 | 9.7 | 25.7 | 0.00 | 0.00 | 0.00 | 1 | 1015.0 |
| 20260903032046 | 19 | 265 | 11.3 | 25.7 | 0.00 | 0.00 | 0.00 | 1 | 1014.8 |
| 20260903031019 | 19 | 223 | 9.7 | 22.5 | 0.00 | 0.00 | 0.00 | 1 | 1014.6 |
| 20260903030007 | 19 | 255 | 11.3 | 24.1 | 0.00 | 0.00 | 0.00 | 1 | 1014.8 |
| 20260903024953 | 19 | 269 | 11.3 | 24.1 | 0.00 | 0.00 | 0.00 | 1 | 1015.0 |
| 20260903023923 | 19 | 252 | 12.9 | 27.4 | 0.00 | 0.00 | 0.00 | 1 | 1014.9 |
| 20260903022941 | 19 | 250 | 11.3 | 29.0 | 0.00 | 0.00 | 0.00 | 1 | 1014.9 |
| 20260903021934 | 19 | 254 | 11.3 | 29.0 | 0.00 | 0.00 | 0.00 | 1 | 1014.9 |
| 20260903020959 | 19 | 236 | 11.3 | 24.1 | 0.00 | 0.00 | 0.00 | 1 | 1015.0 |
| 20260903015945 | 19 | 263 | 11.3 | 29.0 | 0.00 | 0.00 | 0.00 | 1 | 1015.0 |
| 20260903014939 | 19 | 217 | 11.3 | 29.0 | 0.00 | 0.00 | 0.00 | 1 | 1015.2 |
| 20260903013954 | 19 | 264 | 11.3 | 25.7 | 0.00 | 0.00 | 0.00 | 1 | 1015.1 |
| 20260903013011 | 19 | 240 | 11.3 | 25.7 | 0.00 | 0.00 | 0.00 | 1 | 1015.2 |
| 20260903012014 | 19 | 267 | 9.7 | 24.1 | 0.00 | 0.00 | 0.00 | 1 | 1015.4 |
| 20260903005916 | 19 | 263 | 8.0 | 27.4 | 0.00 | 0.00 | 0.00 | 1 | 1015.5 |
| 20260903004856 | 19 | 254 | 8.0 | 25.7 | 0.00 | 0.00 | 0.00 | 1 | 1015.5 |
| 20260903003856 | 19 | 269 | 9.7 | 25.7 | 0.00 | 0.00 | 0.00 | 1 | 1015.5 |
| 20260903001710 | 19 | 274 | 8.0 | 20.9 | 0.00 | 0.00 | 0.00 | 1 | 1015.5 |
| 20260903000648 | 19 | 271 | 9.7 | 20.9 | 0.00 | 0.00 | 0.00 | 1 | 1015.4 |
| 20260902235701 | 19 | 241 | 9.7 | 22.5 | 0.00 | 0.00 | 0.00 | 1 | 1015.8 |
| 20260902234716 | 19 | 280 | 9.7 | 22.5 | 0.00 | 0.00 | 0.00 | 1 | 1015.9 |
| 20260902233718 | 19 | 231 | 9.7 | 24.1 | 0.00 | 0.00 | 0.00 | 1 | 1016.0 |
| 20260902232706 | 19 | 294 | 9.7 | 24.1 | 0.00 | 0.00 | 0.00 | 1 | 1016.1 |
| 20260902231656 | 19 | 257 | 6.4 | 17.7 | 0.00 | 0.00 | 0.00 | 1 | 1016.1 |